Simultaneous Nadir Overpasses (SNOs) Predictions

Prediction of SNOs between AURA and NPP Satellite Orbit:

Table of predicted SNOs for the next 14.0 days since TLE Epoch: 3/20/2021
Index Date (AURA) Time (AURA) Lat,Lon (AURA) SZA (AURA ) Date (NPP) Time (NPP) Lat,Lon (NPP) SZA (NPP ) Distance(km) Time Diff (sec)
1 03/22/2021 03:41:34 -79.46,-158.95 87.91 03/22/2021 03:41:03 -79.46,-158.89 87.89 1.31 31
2 03/22/2021 04:30:54 79.68, 10.27 91.76 03/22/2021 04:31:41 79.68, 10.24 91.73 0.76 47
3 03/24/2021 19:58:02 -79.51, -42.70 89.06 03/24/2021 19:57:56 -79.51, -42.74 89.05 0.72 6
4 03/24/2021 20:47:22 79.73, 126.52 90.61 03/24/2021 20:48:34 79.72, 126.40 90.58 2.60 72
5 03/27/2021 11:25:10 79.28, -96.01 90.23 03/27/2021 11:24:12 79.28, -96.15 90.30 2.87 58
6 03/27/2021 12:14:29 -79.56, 73.51 90.20 03/27/2021 12:14:48 -79.56, 73.41 90.19 2.06 19
7 03/30/2021 03:41:33 79.48, 21.16 88.88 03/30/2021 03:40:59 79.49, 21.29 88.88 2.91 34
8 03/30/2021 04:30:56 -79.64,-170.05 91.38 03/30/2021 04:31:40 -79.63,-170.18 91.39 2.72 44
9 04/01/2021 19:58:00 79.55, 137.54 87.72 04/01/2021 19:57:51 79.56, 137.67 87.70 2.94 9



Historial Predications of SNOs between AURA and NPP
